Beaufort MCAS, SC

4:19 PM EDT on March 24, 2017 (GMT -0400)
Beaufort Marine Corps Air Station

Weather History for KNBC - February, 2013

Change the Weather History Date:

Wednesday, February 20, 2013

  Actual Average Record
Temperature  
Mean Temperature 48 °F -  
Max Temperature 60 °F 65 °F 78 °F (2014)
Min Temperature 35 °F 43 °F 21 °F (2015)
Degree Days  
Heating Degree Days 18    
Moisture  
Dew Point 32 °F    
Average Humidity 57    
Maximum Humidity 85    
Minimum Humidity 28    
Precipitation  
Precipitation 0.00 in - - ()
Sea Level Pressure  
Sea Level Pressure 30.13 in    
Wind  
Wind Speed 5 mph (West)    
Max Wind Speed 7 mph    
Max Gust Speed -    
Visibility 10 miles    
Events      
Averages and records for this station are not official NWS values.
T = Trace of Precipitation, MM = Missing Value Source: NWS Daily Summary

Daily Weather History Graph

Daily Weather History Graph

Search for Another Location

Airport or City:

Trip Planner

Search our weather history database for the weather conditions in past years. The results will help you decide how hot, cold, wet, or windy it might be!

Date:

Astronomy

Feb. 20, 2013 Rise Set
Actual Time 7:00 AM EST 6:13 PM EST
Civil Twilight 6:35 AM EST 6:38 PM EST
Nautical Twilight 6:06 AM EST 7:06 PM EST
Astronomical Twilight 5:38 AM EST 7:35 PM EST
Moon 1:43 PM EST (2/20) 3:09 AM EST (2/20)
Length of Visible Light 12h 02m
Length of Day
11h 12m
Waxing Gibbous, 76% of the Moon is Illuminated
Feb 20
Waxing Gibbous
Feb 25
Full
Mar 4
Last Quarter
Mar 11
New
Mar 19
First Quarter

Hourly Weather History & Observations

Time (EST) Temp. Windchill Dew Point Humidity Pressure Visibility Wind Dir Wind Speed Gust Speed Precip Events Conditions
12:56 AM 48.0 °F - 42.1 °F 80% 30.09 in 10.0 mi WNW 6.9 mph - N/A   Clear
1:56 AM 46.0 °F 43.1 °F 37.0 °F 71% 30.10 in 10.0 mi NW 5.8 mph - N/A   Clear
2:56 AM 44.1 °F 40.1 °F 32.0 °F 63% 30.11 in 10.0 mi NW 6.9 mph - N/A   Clear
3:56 AM 39.9 °F 37.8 °F 33.1 °F 77% 30.11 in 10.0 mi West 3.5 mph - N/A   Clear
4:56 AM 35.1 °F 31.0 °F 30.9 °F 85% 30.11 in 10.0 mi West 4.6 mph - N/A   Clear
5:56 AM 36.0 °F 33.3 °F 30.0 °F 79% 30.13 in 10.0 mi West 3.5 mph - N/A   Clear
6:56 AM 35.1 °F 32.2 °F 27.0 °F 72% 30.15 in 10.0 mi WNW 3.5 mph - N/A   Clear
7:56 AM 39.0 °F 35.7 °F 28.0 °F 65% 30.17 in 10.0 mi WNW 4.6 mph - N/A   Scattered Clouds
8:07 AM 41.0 °F 39.0 °F 26.6 °F 57% 30.17 in 10.0 mi NW 3.5 mph - N/A   Partly Cloudy
8:56 AM 44.1 °F 40.8 °F 27.0 °F 51% 30.19 in 10.0 mi NW 5.8 mph - N/A   Partly Cloudy
9:56 AM 46.9 °F - 26.1 °F 44% 30.18 in 10.0 mi North - - N/A   Clear
10:56 AM 50.0 °F - 26.1 °F 39% 30.17 in 10.0 mi North 6.9 mph - N/A   Clear
11:56 AM 53.1 °F - 23.0 °F 31% 30.16 in 10.0 mi Variable 3.5 mph - N/A   Partly Cloudy
12:56 PM 54.0 °F - 25.0 °F 33% 30.12 in 10.0 mi Calm Calm - N/A   Scattered Clouds
1:56 PM 57.0 °F - 28.0 °F 33% 30.09 in 10.0 mi SSE 5.8 mph - N/A   Scattered Clouds
2:56 PM 57.0 °F - 30.0 °F 36% 30.09 in 10.0 mi South 5.8 mph - N/A   Scattered Clouds
3:56 PM 60.1 °F - 27.0 °F 28% 30.08 in 10.0 mi NW 4.6 mph - N/A   Scattered Clouds
4:56 PM 57.9 °F - 34.0 °F 41% 30.09 in 10.0 mi SSE 5.8 mph - N/A   Clear
5:56 PM 53.1 °F - 35.1 °F 50% 30.11 in 10.0 mi South 5.8 mph - N/A   Clear
6:56 PM 51.1 °F - 36.0 °F 56% 30.13 in 10.0 mi SSW 3.5 mph - N/A   Clear
7:56 PM 50.0 °F - 36.0 °F 59% 30.13 in 10.0 mi Calm Calm - N/A   Clear
8:56 PM 50.0 °F - 37.9 °F 63% 30.10 in 10.0 mi South 4.6 mph - N/A   Clear
9:56 PM 48.0 °F - 37.9 °F 68% 30.11 in 10.0 mi Variable 3.5 mph - N/A   Partly Cloudy
10:56 PM 46.0 °F 44.8 °F 37.9 °F 73% 30.11 in 10.0 mi SW 3.5 mph - N/A   Clear
11:56 PM 44.1 °F - 37.9 °F 79% 30.13 in 10.0 mi Calm Calm - N/A   Clear